sat.trackr.live / text

‹ back to catalog

STARLINK-32439

NORAD 61665 · 2024-193E

PAYLOAD ACTIVE UNKNOWN

§ Identity

Operator
Country
US
Launch date
2024-10-26
Launch site
AFETR
Launch vehicle
Mass (kg)
RCS (m²)

Purposes: comms

External: N2YO · Heavens-Above · Gunter

§ Orbital elements

Epoch: 2026-09-21T16:25:12.634464Z

Period
93.85 min
Inclination
53.1600°
Eccentricity
0.0001245
Mean motion
15.34394647 rev/d
Perigee alt
461.9 km
Apogee alt
463.6 km
Semi-major
6,840.9 km
B*
8.4532e-5
RAAN
259.9657°
Arg perigee
87.6010°
Mean anomaly
272.5135°
Rev number
10,654

§ Raw data

STARLINK-324391 61665U 24193E   26264.68417401  .00002480  00000+0  84532-4 0  99932 61665  53.1600 259.9657 0001245  87.6010 272.5135 15.34394647106545

JSON: /api/v1/satellites/61665 · /tle

For live sub-satellite position, see the globe view (requires WebGL).

§ Visibility from observer

Set your observer location to see the next 7 days of passes ≥ 10°. The values pass through the URL so the page stays shareable.

No JS? Fill the form by hand. The geolocation button needs JavaScript.